[[{"header":{"parameterUnit":"m.s-1","parameterCategory":1,"la1":30.2991,"la2":30.254,"lo1":-89.0895,"lo2":-89.0444,"dy":0.0017,"dx":0.0017,"nx":28,"ny":28,"refTime":"2025-12-30T09:00:00:Z","depth":0,"parameterNumber":2,"parameterNumberName":"U-component_of_WINDS"},"data":[0,0,0,0,0,0,0,0,0,0,0,0,0,0,0,0,0,0,0,0,0,0,0,0,0,0,0,0,0,0,0,0,0,0,0,0,0,0,0,0,0,0,0,0,0,0,0,0,0,0,0,0,0,0,0,0,0,0,5.5789,5.5792,0,5.6035,5.6037,5.604,5.5979,5.5974,5.5969,5.5964,5.6221,5.6232,5.6244,0,0,0,0,0,0,0,0,0,0,0,0,0,5.5271,5.5281,5.5789,5.5792,5.5795,5.6034,5.6038,5.6041,5.5979,5.5974,5.5968,5.5962,5.6218,5.6231,5.6245,0,0,0,0,0,0,0,0,0,0,0,0,0,5.5504,5.5284,5.5789,5.5793,5.5796,5.6034,5.6038,5.6042,5.5981,5.5973,5.5966,5.5959,5.6213,5.623,5.6247,5.6496,0,0,5.6298,5.6306,0,0,0,0,0,0,0,0,5.5491,5.5523,5.5789,5.5793,5.5797,5.5968,5.5949,5.6194,5.5983,5.5911,5.5964,5.5956,5.6144,5.6166,5.6228,5.6508,5.6519,5.63,5.631,5.6318,5.6322,0,0,0,0,0,0,0,5.5475,5.5513,5.5886,5.5793,5.5798,5.5784,5.5809,5.5995,5.6065,5.5916,5.5913,5.5942,5.6144,5.6212,5.6233,5.6523,5.6299,5.6315,5.6325,5.6332,5.7019,5.7026,0,0,0,0,0,0,5.5455,5.5499,5.5879,5.5894,5.5623,5.5799,5.5828,5.5921,5.6063,5.6077,5.5948,5.5938,5.6186,5.6214,5.6242,5.6542,5.6317,5.6333,5.6343,5.7011,5.7021,5.7029,0,0,0,0,0,0,5.5444,5.549,5.5869,5.5696,5.5743,5.5816,5.5921,5.593,5.5997,5.6086,5.6099,5.6004,5.6181,5.6218,5.6433,5.655,5.6341,5.6357,5.7001,5.7014,5.7025,5.7146,0,0,0,0,0,0,5.543,5.5486,5.5581,5.5698,5.5752,5.6054,5.5929,5.594,5.6026,5.6015,5.6142,5.6156,5.6179,5.6408,5.645,5.657,5.637,5.6991,5.7007,5.7021,5.7131,5.716,5.7185,0,0,0,0,0,5.5411,5.5607,5.5586,5.5632,5.5872,5.6061,5.6092,5.6112,5.6035,5.6132,5.6189,5.6152,5.6531,5.643,5.6477,5.6604,5.6984,5.7002,5.702,5.7119,5.7155,5.7184,0,0,0,0,0,0,5.5504,5.5622,5.5601,5.5839,5.594,5.605,5.6172,5.6149,5.6276,5.6261,5.6282,5.6311,5.653,5.6589,5.6474,5.6852,5.6746,5.6775,5.6806,5.684,5.6866,5.6847,5.6384,0,0,0,0,0,5.5551,5.5694,5.579,5.5992,5.6043,5.6099,5.6182,5.6189,5.6295,5.6338,5.6411,5.6517,5.6659,5.6753,5.689,5.714,5.7166,5.725,5.7277,5.7299,5.7323,5.7458,5.7496,5.7089,5.7089,5.7088,0,0,5.5653,5.5735,5.5824,5.6012,5.6091,5.6239,5.6136,5.6297,5.6407,5.6363,5.6569,5.6627,5.6746,5.6979,5.7085,5.7035,5.7441,5.7322,5.7338,5.7351,5.748,5.7519,5.7553,5.7101,5.7099,5.7097,0,0,5.5911,5.5988,5.6163,5.6244,5.6364,5.6399,5.6442,5.6555,5.6591,5.6797,5.6767,5.6899,5.7145,5.723,5.7306,5.7596,5.7567,5.764,5.778,5.7911,5.7943,5.7972,5.8074,5.8111,5.7664,5.7664,5.7664,0,5.6022,5.6241,5.6257,5.642,5.6503,5.6469,5.6646,5.6725,5.6884,5.6943,5.6884,5.7189,5.7268,5.7519,5.7589,5.7653,5.7701,5.7625,5.7937,5.7966,5.7993,5.8091,5.8129,5.7672,5.7671,5.767,5.767,0,5.6371,5.6524,5.6651,5.6803,5.6901,5.7071,5.7113,5.7211,5.7208,5.7251,5.7461,5.7553,5.7707,5.7767,5.7768,5.8019,5.7984,5.7931,5.7825,5.8039,5.8131,5.8169,5.7684,5.7681,5.7678,5.7676,0,0,5.6696,5.6852,5.6899,5.6966,5.7095,5.7214,5.7383,5.753,5.7613,5.7725,5.7866,5.8074,5.8025,5.8111,5.8121,5.8237,5.8458,5.8169,5.8172,5.8219,5.8739,5.8777,5.882,5.8439,5.8447,5.8453,5.8729,0,5.6965,5.7259,5.7277,5.7544,5.7684,5.7653,5.7799,5.7895,5.7939,5.8065,5.8114,5.826,5.8186,5.8237,5.835,5.8407,5.8563,5.8388,5.8572,5.8578,5.8541,5.8869,5.891,5.9166,5.8765,5.8771,5.8775,0,5.7318,5.7437,5.7717,5.7824,5.7884,5.8015,5.8151,5.8273,5.8381,5.8404,5.8499,5.8493,5.8666,5.8553,5.8792,5.8673,5.8749,5.8789,5.8799,5.8816,5.8689,5.8894,5.9248,5.9286,5.8833,5.8828,5.8824,0,5.7525,5.7756,5.7952,5.8011,5.8142,5.8234,5.8294,5.8394,5.8481,5.8601,5.8657,5.8797,5.8873,5.8981,5.9012,5.8928,5.925,5.9141,5.9275,5.9274,5.9344,5.9339,5.9715,5.9395,5.9395,5.9394,5.9393,0,5.7823,5.7996,5.8046,5.8168,5.8359,5.8379,5.8569,5.8622,5.8712,5.8843,5.8825,5.8949,5.8983,5.9114,5.914,5.9333,5.9368,5.9392,5.9397,5.9393,5.939,5.9443,5.9426,5.9404,5.9402,5.94,5.9398,0,5.8087,5.8128,5.834,5.8445,5.8475,5.8612,5.8703,5.882,5.886,5.9026,5.9067,5.9131,5.9284,5.9325,5.9509,5.9526,5.9753,5.9742,5.9716,5.9715,5.9847,5.9833,6.0269,6.0326,5.997,5.9974,5.9976,0,5.8274,5.8405,5.8524,5.8609,5.8671,5.881,5.8898,5.8922,5.9015,5.9146,5.9247,5.9397,5.9517,5.9763,5.9827,5.9967,5.9958,6.0101,5.9979,5.9971,5.9959,5.995,5.9963,6.0124,6.0128,6.0131,6.0134,0,5.8601,5.8614,5.8741,5.8875,5.8979,5.9087,5.9189,5.9261,5.93,5.9405,5.9559,5.9652,5.9838,5.9987,6.0128,6.019,6.0169,6.0171,6.0209,6.0207,6.0186,6.0197,5.9777,6.0161,6.0158,6.0156,6.0155,6.0154,5.8832,5.8946,5.9046,5.9188,5.9267,5.9363,5.9476,5.953,5.9658,5.981,5.9817,5.9984,6.0088,6.0274,6.0344,6.0476,6.0433,6.0489,6.0503,6.0516,6.0527,6.0165,6.0502,6.0501,6.0501,6.05,6.05,0,5.9157,5.9219,5.9349,5.9491,5.9602,5.957,5.9682,5.9777,5.9924,6.0021,6.0139,6.0316,6.046,6.0535,6.0678,6.0769,6.0763,6.0805,6.0799,6.0813,6.0557,6.0509,6.0808,6.0808,6.0808,6.0808,6.0808,6.0807,5.9339,5.953,5.9555,5.9785,5.9847,6.0009,6.0075,6.0163,6.024,6.0438,6.0556,6.0603,6.0691,6.084,6.097,6.0989,6.1042,6.109,6.1103,6.0863,6.0831,6.0801,6.0756,6.1101,6.1102,6.1347,6.1349,6.1351]},{"header":{"parameterUnit":"m.s-1","parameterCategory":1,"la1":30.2991,"la2":30.254,"lo1":-89.0895,"lo2":-89.0444,"dy":0.0017,"dx":0.0017,"nx":28,"ny":28,"refTime":"2025-12-30T09:00:00:Z","depth":0,"parameterNumber":3,"parameterNumberName":"V-component_of_WINDS"},"data":[0,0,0,0,0,0,0,0,0,0,0,0,0,0,0,0,0,0,0,0,0,0,0,0,0,0,0,0,0,0,0,0,0,0,0,0,0,0,0,0,0,0,0,0,0,0,0,0,0,0,0,0,0,0,0,0,0,0,0.0419,0.0419,0,0.0391,0.0391,0.0391,0.0363,0.0362,0.0362,0.0361,0.0333,0.0333,0.0332,0,0,0,0,0,0,0,0,0,0,0,0,0,0.0446,0.0446,0.0419,0.0419,0.0418,0.0391,0.0391,0.0391,0.0363,0.0362,0.0362,0.0361,0.0333,0.0333,0.0332,0,0,0,0,0,0,0,0,0,0,0,0,0,0.0428,0.0446,0.0419,0.0401,0.0399,0.0391,0.0391,0.0391,0.0363,0.0362,0.0362,0.0361,0.0333,0.0333,0.0332,0.034,0,0,0.033,0.033,0,0,0,0,0,0,0,0,0.0429,0.0427,0.0404,0.0402,0.04,0.038,0.039,0.0373,0.0363,0.0377,0.0361,0.0361,0.0349,0.0347,0.0343,0.0338,0.0337,0.033,0.033,0.0329,0.0329,0,0,0,0,0,0,0,0.043,0.0428,0.0408,0.0404,0.0401,0.0394,0.0391,0.0387,0.0366,0.0375,0.0373,0.037,0.0348,0.0344,0.0342,0.0337,0.033,0.033,0.0329,0.0329,0.0335,0.0336,0,0,0,0,0,0,0.0434,0.0429,0.0409,0.0407,0.0413,0.0394,0.039,0.0387,0.0366,0.0363,0.0371,0.0369,0.0345,0.0343,0.0341,0.0348,0.0329,0.0329,0.0329,0.0335,0.0336,0.0336,0,0,0,0,0,0,0.0435,0.0433,0.041,0.0418,0.0414,0.0394,0.039,0.0387,0.0383,0.0363,0.0359,0.0371,0.0345,0.0342,0.034,0.0347,0.0329,0.0328,0.0334,0.0335,0.0336,0.0363,0,0,0,0,0,0,0.0436,0.0433,0.0436,0.0418,0.0414,0.041,0.0391,0.0387,0.0382,0.0379,0.0362,0.0358,0.0344,0.0341,0.0339,0.0346,0.0328,0.0334,0.0335,0.0336,0.0361,0.0364,0.0367,0,0,0,0,0,0.0437,0.0445,0.0437,0.0434,0.0417,0.041,0.0408,0.0391,0.0382,0.0385,0.0372,0.0359,0.0346,0.0341,0.0339,0.0345,0.0333,0.0334,0.0336,0.036,0.0364,0.0367,0,0,0,0,0,0,0.0465,0.0443,0.0433,0.0435,0.0425,0.0406,0.0409,0.0396,0.0388,0.0386,0.0366,0.0362,0.0362,0.0353,0.0348,0.0351,0.0338,0.0339,0.0357,0.036,0.0363,0.0365,0.0327,0,0,0,0,0,0.0472,0.0468,0.0448,0.0452,0.0448,0.0429,0.0425,0.0413,0.0402,0.0397,0.0384,0.0373,0.0367,0.0363,0.0356,0.0359,0.0355,0.0362,0.0365,0.0368,0.0369,0.0369,0.0372,0.034,0.034,0.034,0,0,0.0485,0.0472,0.0471,0.0458,0.0448,0.0445,0.0426,0.0423,0.042,0.0397,0.0394,0.0384,0.037,0.0371,0.037,0.0363,0.0376,0.0369,0.0372,0.0371,0.0371,0.0374,0.0376,0.0341,0.0341,0.0341,0,0,0.0508,0.0498,0.05,0.0491,0.0476,0.0464,0.0464,0.0446,0.0439,0.0436,0.0418,0.0414,0.0403,0.0394,0.0388,0.0405,0.0392,0.0403,0.0419,0.0419,0.0422,0.0424,0.043,0.0432,0.0404,0.0404,0.0405,0,0.0526,0.0521,0.0502,0.05,0.0495,0.0473,0.0475,0.0466,0.0451,0.0447,0.0439,0.0424,0.0414,0.0411,0.0416,0.0411,0.0411,0.0406,0.0423,0.0425,0.0427,0.0432,0.0434,0.0406,0.0406,0.0406,0.0405,0,0.0544,0.054,0.0543,0.0528,0.0522,0.0522,0.0503,0.05,0.0488,0.0476,0.0472,0.0458,0.0448,0.0446,0.0435,0.0442,0.0438,0.0427,0.0413,0.0431,0.0436,0.0438,0.0408,0.0407,0.0407,0.0407,0,0,0.0584,0.0559,0.056,0.0553,0.0535,0.0531,0.0529,0.0519,0.0516,0.0505,0.0503,0.0494,0.0483,0.0476,0.0463,0.0463,0.0477,0.0452,0.0451,0.0457,0.0483,0.0492,0.0494,0.0468,0.0469,0.0469,0.0484,0,0.0604,0.06,0.0583,0.0584,0.0579,0.0558,0.0557,0.0545,0.0533,0.0528,0.0514,0.0508,0.0495,0.049,0.049,0.0476,0.0482,0.0474,0.0465,0.0465,0.047,0.0497,0.0506,0.0521,0.0486,0.0486,0.0486,0,0.0626,0.0617,0.0617,0.0599,0.0596,0.0595,0.0583,0.0578,0.0564,0.0555,0.0547,0.0532,0.0529,0.0516,0.051,0.0505,0.05,0.0492,0.0492,0.0491,0.0477,0.0496,0.0526,0.0528,0.0489,0.0489,0.0489,0,0.0655,0.0643,0.0641,0.0635,0.0614,0.0613,0.0604,0.059,0.0584,0.0573,0.0569,0.0559,0.0553,0.0544,0.0527,0.0519,0.0522,0.0508,0.0515,0.0515,0.0517,0.0517,0.0546,0.0514,0.0513,0.0513,0.0513,0,0.0679,0.068,0.0654,0.0653,0.0653,0.0633,0.0633,0.0622,0.0609,0.0605,0.0586,0.0583,0.0559,0.0553,0.0539,0.0536,0.0533,0.0526,0.0522,0.0527,0.0528,0.0524,0.0522,0.0514,0.0514,0.0514,0.0514,0,0.0712,0.0695,0.0691,0.0671,0.0665,0.0666,0.0648,0.0646,0.0633,0.0628,0.0625,0.0604,0.0596,0.0577,0.0563,0.0554,0.0554,0.0547,0.0559,0.0556,0.0563,0.0563,0.0591,0.0593,0.056,0.056,0.056,0,0.0728,0.0728,0.0708,0.0703,0.0695,0.0689,0.0683,0.0663,0.0657,0.064,0.064,0.063,0.062,0.0607,0.059,0.0579,0.0572,0.0583,0.0571,0.0576,0.0572,0.0572,0.0572,0.0586,0.0586,0.0587,0.0587,0,0.0759,0.075,0.0742,0.0731,0.0724,0.0715,0.0704,0.0701,0.0678,0.0673,0.0664,0.0657,0.0642,0.0632,0.0618,0.0608,0.0593,0.0591,0.0592,0.0597,0.0604,0.06,0.0566,0.059,0.059,0.059,0.059,0.0589,0.0783,0.0782,0.0767,0.0759,0.0749,0.0739,0.0735,0.0721,0.0713,0.07,0.0689,0.068,0.0665,0.0645,0.0635,0.0628,0.0621,0.0622,0.0623,0.0623,0.0625,0.0605,0.0625,0.0625,0.0625,0.0625,0.0625,0,0.0813,0.0802,0.0794,0.078,0.0773,0.076,0.0747,0.0742,0.0735,0.0722,0.0713,0.0701,0.0691,0.0673,0.0661,0.0658,0.0651,0.0656,0.0656,0.0653,0.0633,0.0633,0.0662,0.0662,0.0662,0.0662,0.0662,0.0662,0.0827,0.0824,0.0813,0.0805,0.0793,0.0785,0.0779,0.0769,0.0759,0.0747,0.0739,0.0727,0.0711,0.0698,0.0687,0.0682,0.0678,0.0685,0.0678,0.0658,0.0655,0.0652,0.0652,0.0684,0.0684,0.0699,0.0699,0.0699]}]]